Tegucigalpa, Honduras

12:18 PM CST on April 28, 2017 (GMT -0600)
Toncontin International

Weather History for MHTG - November, 2012

Change the Weather History Date:

Thursday, November 22, 2012

  Actual Average Record
Temperature  
Mean Temperature 68 °F -  
Max Temperature 75 °F 76 °F 82 °F (1999)
Min Temperature 60 °F 59 °F 51 °F (2006)
Cooling Degree Days 2    
Growing Degree Days 18 (Base 50)    
Moisture  
Dew Point 62 °F    
Average Humidity 84    
Maximum Humidity 100    
Minimum Humidity 54    
Precipitation  
Precipitation 0.00 in 0.02 in - ()
Sea Level Pressure  
Sea Level Pressure 30.10 in    
Wind  
Wind Speed 11 mph ()    
Max Wind Speed 16 mph    
Max Gust Speed -    
Visibility 5.3 miles    
Events Rain    
Averages and records for this station are not official NWS values.
T = Trace of Precipitation, MM = Missing Value Source: Averaged Metar Reports

Daily Weather History Graph

Daily Weather History Graph

Search for Another Location

Airport or City:

Trip Planner

Search our weather history database for the weather conditions in past years. The results will help you decide how hot, cold, wet, or windy it might be!

Date:

Astronomy

Nov. 22, 2012 Rise Set
Actual Time 5:52 AM CST 5:17 PM CST
Civil Twilight 5:29 AM CST 5:40 PM CST
Nautical Twilight 5:03 AM CST 6:06 PM CST
Astronomical Twilight 4:37 AM CST 6:32 PM CST
Moon 1:19 PM CST (11/22) 1:00 AM CST (11/22)
Length of Visible Light 12h 10m
Length of Day
11h 24m
Waxing Gibbous, 71% of the Moon is Illuminated
Nov 22
Waxing Gibbous
Nov 28
Full
Dec 6
Last Quarter
Dec 13
New
Dec 19
First Quarter

Hourly Weather History & Observations

Time (CST) Temp. Heat Index Dew Point Humidity Pressure Visibility Wind Dir Wind Speed Gust Speed Precip Events Conditions
12:00 AM 63 °F - 62 °F 96% 30.02 in 3 mi North 11.5 mph - - Rain Light Drizzle
12:00 AM 62.6 °F - 62.6 °F 100% 30.15 in 3.1 mi North 11.5 mph - N/A   Light Drizzle
1:00 AM 62.6 °F - 62.6 °F 100% 30.15 in 3.7 mi North 11.5 mph - N/A   Mostly Cloudy
2:00 AM 62.6 °F - 62.6 °F 100% 30.15 in 3.7 mi North 11.5 mph - N/A   Light Drizzle
3:00 AM 62 °F - 62 °F 99% 29.98 in 3 mi North 11.5 mph - -   Mostly Cloudy
3:00 AM 80.6 °F 81.8 °F 62.6 °F 54% 30.09 in 3.1 mi North 11.5 mph - N/A   Mostly Cloudy
4:00 AM 80.6 °F 81.8 °F 62.6 °F 54% 30.09 in 3.1 mi North 11.5 mph - N/A   Mostly Cloudy
5:00 AM 62.6 °F - 60.8 °F 94% 30.09 in 5.0 mi North 9.2 mph - N/A   Scattered Clouds
6:00 AM 61 °F - 60 °F 97% 30.02 in 6 mi North 11.5 mph - -   Haze
6:00 AM 60.8 °F - 60.8 °F 100% 30.12 in 6.2 mi North 11.5 mph - N/A   Mostly Cloudy
7:00 AM 62.6 °F - 60.8 °F 94% 30.15 in 6.2 mi North 9.2 mph - N/A   Mostly Cloudy
8:00 AM 66.2 °F - 62.6 °F 88% 30.15 in 6.2 mi North 13.8 mph - N/A   Mostly Cloudy
9:00 AM 67 °F - 62 °F 79% 30.04 in 7 mi North 13.8 mph - -   Haze
9:00 AM 66.2 °F - 62.6 °F 88% 30.18 in 6.2 mi North 13.8 mph - N/A   Scattered Clouds
10:00 AM 69.8 °F - 62.6 °F 78% 30.18 in 6.2 mi NNE 12.7 mph - N/A   Scattered Clouds
11:00 AM 71.6 °F - 64.4 °F 78% 30.15 in - North 15.0 mph - N/A   Scattered Clouds
12:00 PM 73.4 °F - 62.6 °F 69% 30.12 in 6.2 mi North 16.1 mph - N/A   Mostly Cloudy
1:00 PM 73.4 °F - 62.6 °F 69% 30.12 in 6.2 mi North 15.0 mph - N/A   Mostly Cloudy
2:00 PM 75.2 °F - 64.4 °F 69% 30.09 in 6.2 mi North 16.1 mph - N/A   Mostly Cloudy
3:00 PM 74 °F - 63 °F 60% 29.89 in 7 mi North 13.8 mph - -  
3:00 PM 75.2 °F - 62.6 °F 65% 30.09 in 6.2 mi North 13.8 mph - N/A   Mostly Cloudy
4:00 PM 73.4 °F - 62.6 °F 69% 30.06 in 6.2 mi North 13.8 mph - N/A   Mostly Cloudy
5:00 PM 69.8 °F - 62.6 °F 78% 30.09 in 6.2 mi North 13.8 mph - N/A   Mostly Cloudy
6:00 PM 67 °F - 63 °F 83% 29.96 in 7 mi North 11.5 mph - -   Mostly Cloudy
6:00 PM 68.0 °F - 62.6 °F 83% 30.09 in 6.2 mi North 11.5 mph - N/A   Mostly Cloudy
7:00 PM 66.2 °F - 62.6 °F 88% 30.12 in 6.2 mi North 13.8 mph - N/A   Mostly Cloudy
8:00 PM 64.4 °F - 62.6 °F 94% 30.15 in 6.2 mi North 11.5 mph - N/A   Mostly Cloudy
9:00 PM 64 °F - 63 °F 95% 30.05 in 4 mi NNE 9.2 mph - -   Mostly Cloudy
9:00 PM 64.4 °F - 62.6 °F 94% 30.18 in 4.3 mi NNE 9.2 mph - N/A   Mostly Cloudy
10:00 PM 64.4 °F - 62.6 °F 94% 30.18 in 4.3 mi North 10.4 mph - N/A   Mostly Cloudy
11:00 PM 64.4 °F - 62.6 °F 94% 30.18 in 4.3 mi North 11.5 mph - N/A   Mostly Cloudy